Starlink 4383

operational
NORAD ID: 53473 Int'l Des: 2022-099 Owner: SPXS Country: US Constellation: starlink
LEOCIRCULARRETROGRADESSO

Starlink 4383について

説明を読み込み中...

リアルタイム位置

3D地球を読み込み中...

次回通過

高度履歴

Altitude vs Time

uPlot chart will show altitude changes over time

軌道要素

1 53473U 22099J 25304.79564207 .00000419 00000-0 33264-4 0 9994
2 53473 97.6051 64.2061 0001215 86.8912 273.2454 15.05642642176651
Epoch: Oct 31, 2025 • Age: 19 hours

現在のステータス

高度 551.8 km
速度 7.59 km/s
衛星直下点 6.04°N, 169.13°E
打ち上げ日 Aug 12, 2022
運用期間 3.2 years
タイプ internet

技術仕様

分類 Payload
質量 300.00 kg
乾燥質量 275.00 kg
総質量 300.00 kg
長さ 0.20 m
直径 2.80 m
スパン 9.00 m
形状 Box + pan
製造者 SPXS
バスタイプ Starlink
フェーズステータス In Orbit
所有者/国 SPXS/US

大規模コンステレーション

Loading constellations...